Weather History for Hurlburt Field, FL

Change the Weather History Date:

Tuesday, December 3, 2013

  Actual Average Record
Temperature  
Mean Temperature 63 °F -  
Max Temperature 75 °F 65 °F 75 °F (1998)
Min Temperature 51 °F 45 °F 31 °F (2008)
Degree Days  
Heating Degree Days 2    
Growing Degree Days 13 (Base 50)    
Moisture  
Dew Point 60 °F    
Average Humidity 82    
Maximum Humidity 94    
Minimum Humidity 69    
Precipitation  
Precipitation 0.00 in - - ()
Sea Level Pressure  
Sea Level Pressure 29.85 in    
Wind  
Wind Speed 4 mph (SSW)    
Max Wind Speed 10 mph    
Max Gust Speed -    
Visibility 10 miles    
Events Rain    
Averages and records for this station are not official NWS values.
T = Trace of Precipitation, MM = Missing Value Source: NWS Daily Summary

Daily Weather History Graph

Daily Weather History Graph

Search for Another Location

Airport:

Trip Planner

Search our weather history database for the weather conditions in past years. The results will help you decide how hot, cold, wet, or windy it might be!

Date:

Astronomy

Dec. 03, 2013 Rise Set
Actual Time 6:27 AM CST 4:45 PM CST
Civil Twilight 6:01 AM CST 5:11 PM CST
Nautical Twilight 5:31 AM CST 5:41 PM CST
Astronomical Twilight 5:02 AM CST 6:10 PM CST
Moon 6:58 AM CST (12/3) 5:46 PM CST (12/3)
Length of Visible Light 11h 10m
Length of Day
10h 17m
New Moon, 1% of the Moon is Illuminated
Dec 3
New Moon
Dec 9
First Quarter
Dec 17
Full
Dec 25
Last Quarter
Jan 1
New

Hourly Weather History & Observations

Time (CST) Temp. Dew Point Humidity Pressure Visibility Wind Dir Wind Speed Gust Speed Precip Events Conditions
12:55 AM 52.7 °F 49.6 °F 89% 29.84 in 10.0 mi Calm Calm - N/A   Scattered Clouds
1:55 AM 54.7 °F 51.6 °F 89% 29.83 in 10.0 mi Calm Calm - N/A   Overcast
2:55 AM 54.0 °F 50.7 °F 89% 29.83 in 10.0 mi Calm Calm - N/A   Scattered Clouds
3:55 AM 53.1 °F 49.6 °F 88% 29.83 in 10.0 mi North 3.5 mph - N/A   Clear
4:55 AM 51.8 °F 48.7 °F 89% 29.82 in 10.0 mi Calm Calm - N/A   Partly Cloudy
5:55 AM 57.2 °F 53.6 °F 88% 29.83 in 10.0 mi North 3.5 mph - N/A   Mostly Cloudy
6:55 AM 53.6 °F 50.0 °F 88% 29.84 in 10.0 mi Calm Calm - N/A   Scattered Clouds
7:55 AM 57.2 °F 55.4 °F 94% 29.86 in 10.0 mi Calm Calm - N/A   Partly Cloudy
8:55 AM 69.8 °F 62.6 °F 78% 29.88 in 10.0 mi Calm Calm - N/A   Partly Cloudy
8:56 AM 73.4 °F 62.6 °F 69% 29.81 in 10.0 mi South 9.2 mph - N/A   Partly Cloudy
9:56 AM 75.2 °F 64.4 °F 69% 29.87 in 10.0 mi SW 5.8 mph - N/A   Partly Cloudy
10:55 AM 75.2 °F 64.4 °F 69% 29.86 in 10.0 mi SSW 10.4 mph - N/A   Partly Cloudy
11:55 AM 75.2 °F 64.4 °F 69% 29.85 in 10.0 mi SSW 10.4 mph - N/A   Mostly Cloudy
12:55 PM 75.2 °F 64.4 °F 69% 29.83 in 10.0 mi SW 10.4 mph - N/A   Mostly Cloudy
1:55 PM 75.2 °F 64.4 °F 69% 29.83 in 10.0 mi SSW 9.2 mph - N/A   Scattered Clouds
2:21 PM 75.2 °F 64.4 °F 69% 29.82 in 10.0 mi SSW 9.2 mph - N/A   Scattered Clouds
2:55 PM 73.4 °F 62.6 °F 69% 29.82 in 10.0 mi South 9.2 mph - N/A   Partly Cloudy
7:58 PM 66.2 °F 62.6 °F 88% 29.87 in 10.0 mi South 5.8 mph - N/A   Mostly Cloudy
8:58 PM 67.6 °F 64.0 °F 88% 29.87 in 10.0 mi South 5.8 mph - 0.00 in   Light Drizzle
9:58 PM 67.1 °F 63.5 °F 88% 29.88 in 10.0 mi South 4.6 mph - 0.00 in   Light Drizzle
10:02 PM 66.2 °F 62.6 °F 88% 29.88 in 10.0 mi South 5.8 mph - N/A   Partly Cloudy
10:03 PM 66.2 °F 62.6 °F 88% 29.88 in 10.0 mi South 5.8 mph - N/A   Light Drizzle
10:08 PM 66.2 °F 62.6 °F 88% 29.88 in 10.0 mi South 6.9 mph - N/A   Clear
10:45 PM 68.0 °F 64.4 °F 88% 29.88 in 10.0 mi South 8.1 mph - N/A   Light Drizzle
10:58 PM 67.3 °F 64.0 °F 89% 29.88 in 10.0 mi South 6.9 mph - 0.00 in Rain Light Rain
11:34 PM 68.0 °F 64.4 °F 88% 29.88 in 10.0 mi South 9.2 mph - N/A   Scattered Clouds
11:58 PM 67.8 °F 63.9 °F 87% 29.88 in 10.0 mi SSW 8.1 mph - 0.00 in   Partly Cloudy